CST,Max TemperatureF,Mean TemperatureF,Min TemperatureF,Max Dew PointF,MeanDew PointF,Min DewpointF,Max Humidity, Mean Humidity, Min Humidity, Max Sea Level PressureIn, Mean Sea Level PressureIn, Min Sea Level PressureIn, Max VisibilityMiles, Mean VisibilityMiles, Min VisibilityMiles, Max Wind SpeedMPH, Mean Wind SpeedMPH, Max Gust SpeedMPH,PrecipitationIn, CloudCover, Events, WindDirDegrees
2012-12-1,61,45,28,52,41,28,100,83,69,30.16,30.03,29.90,10,5,2,24,9,31,T,3,Rain,186
2012-12-2,64,53,42,54,49,41,97,83,59,30.09,29.99,29.88,10,6,2,20,6,25,0.05,6,Rain,235
2012-12-3,69,58,46,61,55,45,100,88,68,30.06,29.91,29.77,10,4,0,28,11,40,0.08,7,Fog,183
2012-12-4,60,48,35,49,34,21,77,56,38,30.33,30.10,29.93,10,10,2,18,10,24,T,1,,303
2012-12-5,39,33,26,26,23,15,82,66,58,30.47,30.39,30.25,10,10,10,12,5,16,0.00,1,,37
2012-12-6,46,39,31,39,33,26,81,74,61,30.25,30.05,29.93,10,10,9,15,8,20,0.00,4,,183
2012-12-7,46,43,40,41,36,33,93,81,73,30.00,29.95,29.90,10,9,4,12,6,15,0.10,8,Rain,7
2012-12-8,42,39,35,36,34,29,93,85,65,30.13,30.00,29.89,10,8,5,15,9,21,0.15,8,Rain,5
2012-12-9,41,38,34,40,36,30,100,91,75,30.12,29.86,29.71,10,6,2,17,6,24,0.21,8,Rain,120
2012-12-10,37,33,28,32,27,20,96,78,61,29.97,29.82,29.71,10,9,3,16,9,24,0.00,8,,294
2012-12-11,35,30,24,24,20,17,78,67,52,30.17,30.05,29.97,10,10,9,20,9,25,0.00,3,,224
2012-12-12,45,35,25,27,24,20,81,63,40,30.31,30.27,30.18,10,10,10,20,10,24,0.00,0,,195
2012-12-13,49,41,32,30,25,20,73,59,34,30.30,30.22,30.11,10,10,10,23,12,30,0.00,0,,198
2012-12-14,50,38,25,32,29,23,89,71,43,30.23,30.16,30.05,10,9,7,8,2,10,0.00,0,,150
2012-12-15,50,45,39,47,41,30,97,86,58,30.03,29.72,29.59,10,5,2,17,10,23,0.36,8,Rain,170
2012-12-16,49,44,39,46,39,33,90,84,79,29.75,29.65,29.59,10,9,7,14,9,20,0.01,8,,252
2012-12-17,39,34,29,34,30,25,87,78,70,29.77,29.73,29.67,10,8,6,10,5,13,0.00,7,,323
2012-12-18,39,34,29,36,30,25,93,83,75,29.83,29.73,29.64,8,5,2,17,6,22,0.01,8,Rain,209
2012-12-19,42,37,31,37,31,28,92,82,73,30.09,29.99,29.82,8,6,3,17,6,25,0.04,6,Rain,38
2012-12-20,49,41,33,46,37,30,96,91,85,29.81,29.33,29.02,10,3,1,33,14,44,1.20,8,Rain-Snow,4
2012-12-21,33,26,19,30,20,13,93,78,71,30.21,29.91,29.46,10,8,1,32,19,44,T,5,Snow,310
2012-12-22,32,24,16,21,15,10,85,71,52,30.25,30.14,29.98,10,10,9,12,5,14,0.00,0,,221
2012-12-23,34,27,19,27,22,16,92,82,73,30.06,30.02,29.95,10,8,6,10,5,14,0.00,5,,351
2012-12-24,34,31,27,27,24,20,82,77,72,30.13,29.97,29.89,10,10,9,16,7,21,0.00,8,,348
2012-12-25,33,29,24,25,22,17,93,79,60,30.34,30.28,30.15,10,7,0,16,8,24,T,8,Fog-Snow,351
2012-12-26,33,30,27,25,22,19,76,70,64,30.23,30.10,30.01,10,10,9,23,14,32,T,8,,18
2012-12-27,33,30,27,29,25,21,96,84,69,30.22,30.16,30.09,10,6,1,15,7,21,T,8,Snow,335
2012-12-28,32,30,28,29,27,26,96,88,82,30.14,30.04,29.89,8,4,1,9,2,13,0.03,8,Snow,155
2012-12-29,31,25,19,28,22,12,93,83,74,30.24,30.01,29.86,10,6,2,20,11,28,T,8,Snow,302
2012-12-30,33,24,14,26,17,9,81,72,59,30.37,30.26,30.09,10,8,5,20,9,29,0.00,0,,227
2012-12-31,34,27,19,24,19,10,75,69,64,30.17,30.08,30.03,10,9,7,17,10,23,0.00,5,,286